Flight Information

DEPARTURE
LAS VEGAS, NV
Elevation:
2491
Runways:
17L/35R - 5001x75 - ASPH-E
17R/35L - 6501x100 - ASPH-E
Active PE Departure:
35L - 35R
Current PE ATIS:
L
Altimeter:
30.32
Remarks:
ATIS:
120.775 702-614-4537
Ground:
127.8
Tower:
125.1
DESTINATION
,
Elevation:
TPA:
1000 (est.)


6606.1 NM75° True-14° Var60° HDG

Flight Plan:
(click to file on line)

1. Type
2. Aircraft Identification
3. Aircraft Type / Special Equipment
4. True Airspeed
kts
5. Departure Airport
(ICAO code)
6. Arriving Airport
(ICAO code)
7. Cruising Altitude
ft
8. Alternate Airport
(ICAO code)
9. Route of Flight
10. Remarks


00:00:00 Departure ATIS: Destination ATIS:

Clearance Limit:
Route:
Altitude: Expect in minutes
Frequency:
Transponder: (7500 Hijack / 7600 Lost Comms / 7700 Emergency)


KHND 211556Z 06004KT 10SM CLR 23/M03 A3032 RMK AO2 SLP265 T02281033
Time: 2021-09-21T15:56:00Z
1632241465
Winds: 60 @ 4 kts
Visibility: 10.0 sm
Clouds (AGL): CLR
Temperature: 22.8 C
Dew Point: -3.3 C
Pressure: 30.318897 in Hgbr


Notes:

Data extracted from FAA Digital Chart Supplement. Effective: 0901Z Thursday, AUG 12, 2021 to 0901Z Thursday, OCT 7, 2021
Current ATIS data is provided courtisy of PilotEdge.